sat.trackr.live / text

‹ back to catalog

STARLINK-4017

NORAD 52682 · 2022-053AC

PAYLOAD ACTIVE UNKNOWN

§ Identity

Operator
Country
US
Launch date
2022-05-18
Launch site
AFETR
Launch vehicle
Mass (kg)
RCS (m²)

Purposes: comms

External: N2YO · Heavens-Above · Gunter

§ Orbital elements

Epoch: 2026-05-25T01:31:06.271392Z

Period
95.44 min
Inclination
53.2141°
Eccentricity
0.0001160
Mean motion
15.08837600 rev/d
Perigee alt
538.9 km
Apogee alt
540.6 km
Semi-major
6,917.9 km
B*
-8.5573e-5
RAAN
161.2688°
Arg perigee
66.6293°
Mean anomaly
293.4821°
Rev number
22,268

§ Raw data

STARLINK-40171 52682U 22053AC  26145.06326703 -.00001649  00000+0 -85573-4 0  99932 52682  53.2141 161.2688 0001160  66.6293 293.4821 15.08837600222680

JSON: /api/v1/satellites/52682 · /tle

For live sub-satellite position, see the globe view (requires WebGL).

§ Visibility from observer

Set your observer location to see the next 7 days of passes ≥ 10°. The values pass through the URL so the page stays shareable.

No JS? Fill the form by hand. The geolocation button needs JavaScript.